Tracking 23726 objects as of 24-Sep-2021
HD Live streaming from Space Station
objects crossing your sky now

DELTA 1 DEB

Track DELTA 1 DEB now!
10-day predictions


NORAD ID: 37665
Int'l Code: 1978-026KC
Perigee: 789.8 km
Apogee: 830.0 km
Inclination: 99.1 °
Period: 100.9 minutes
Semi major axis: 7180 km
RCS: 0.0151 m2 (small)
Launch date: March 5, 1978
Source: United States (US)
Launch site: AIR FORCE WESTERN TEST RANGE (AFWTR)

Note: This is SATELLITE DEBRIS
aabbcc
Your satellite tracking list
Your tracking list is empty




NASA's NSSDC Master Catalog

Two Line Element Set (TLE):
1 37665U 78026KC  21266.91243578  .00000553  00000-0  24729-3 0  9996
2 37665  99.1495 324.2534 0028015  47.4331 312.9205 14.26697717960420
Source of the keplerian elements: AFSPC